CST,Max TemperatureF,Mean TemperatureF,Min TemperatureF,Max Dew PointF,MeanDew PointF,Min DewpointF,Max Humidity, Mean Humidity, Min Humidity, Max Sea Level PressureIn, Mean Sea Level PressureIn, Min Sea Level PressureIn, Max VisibilityMiles, Mean VisibilityMiles, Min VisibilityMiles, Max Wind SpeedMPH, Mean Wind SpeedMPH, Max Gust SpeedMPH,PrecipitationIn, CloudCover, Events, WindDirDegrees
2012-12-1,77,70,64,67,64,63,97,92,71,30.19,30.14,30.11,10,7,2,12,4,,0.04,5,Rain,156
2012-12-2,82,73,64,66,64,58,100,82,47,30.14,30.13,30.10,10,9,2,13,7,,0.00,0,,147
2012-12-3,84,76,68,70,66,61,96,74,47,30.10,30.07,30.02,10,10,10,13,8,,0.00,4,,193
2012-12-4,66,64,62,65,64,63,100,96,93,30.18,30.15,30.10,10,7,1,7,2,,0.08,7,Rain-Thunderstorm,326
2012-12-5,64,58,53,61,56,52,100,93,77,30.17,30.10,30.05,10,7,1,8,4,,0.01,2,,9
2012-12-6,75,64,53,61,57,54,100,93,55,30.07,30.00,29.91,10,4,0,8,2,,0.01,5,Fog,95
2012-12-7,62,60,59,61,60,59,100,98,94,29.92,29.90,29.89,3,1,0,5,3,,0.00,7,Fog,147
2012-12-8,66,63,62,66,64,63,100,99,94,29.93,29.91,29.90,8,2,0,0,0,,0.00,3,Fog,-1
2012-12-9,80,77,77,70,69,68,79,75,67,29.93,29.89,29.83,10,10,10,16,13,,0.00,7,,190
2012-12-10,54,45,36,36,28,24,67,52,38,30.15,30.08,29.98,10,10,10,25,17,38,0.00,2,,342
2012-12-11,53,40,28,29,25,20,85,54,27,30.22,30.17,30.13,10,10,10,14,5,,0.00,0,,3
2012-12-12,60,46,33,31,27,19,85,55,20,30.38,30.32,30.27,10,10,10,10,4,,0.00,0,,58
2012-12-13,64,49,34,42,34,29,85,47,27,30.38,30.32,30.25,10,10,10,10,5,,0.00,0,,96
2012-12-14,72,64,55,65,57,44,84,74,64,30.24,30.09,29.94,10,10,10,15,7,21,0.00,6,,123
2012-12-15,81,76,70,70,68,65,88,77,65,29.99,29.92,29.85,10,10,10,18,11,20,0.00,7,Rain,180
2012-12-16,72,70,69,65,65,65,87,83,78,29.81,29.79,29.77,10,10,10,7,4,,0.00,3,,320
2012-12-17,48,48,46,43,43,42,83,83,83,29.96,29.96,29.96,10,10,10,4,2,,0.00,0,,170
2012-12-18,80,63,46,60,52,41,100,74,39,29.98,29.93,29.88,10,9,2,16,4,22,0.00,0,,187
2012-12-19,81,77,73,70,69,67,88,77,62,29.87,29.80,29.73,10,10,10,24,20,32,0.00,5,,182
2012-12-20,55,50,46,26,22,9,44,32,15,30.35,30.26,30.11,10,10,10,23,21,46,0.11,0,,337
2012-12-21,60,53,44,28,20,16,51,29,19,30.51,30.44,30.40,10,10,10,4,1,,0.00,0,,213
2012-12-22,71,54,37,53,44,32,83,58,44,30.41,30.31,30.17,10,10,10,16,6,23,0.00,3,,148
2012-12-23,73,68,64,65,62,57,90,81,68,30.09,29.97,29.93,10,10,10,12,7,20,0.00,1,,204
2012-12-24,71,68,66,65,61,54,94,82,53,29.94,29.85,29.75,10,10,8,9,6,,0.00,3,Rain,168
2012-12-25,73,55,36,66,51,24,94,72,31,30.06,29.77,29.63,10,9,5,26,14,38,0.05,5,,249
2012-12-26,46,40,32,27,25,22,82,64,46,30.28,30.18,30.12,10,10,10,20,15,28,0.00,3,,343
2012-12-27,57,45,33,57,49,28,100,90,71,30.13,29.93,29.83,10,6,2,12,7,16,0.03,8,Rain,88
2012-12-28,60,52,43,59,48,34,100,82,60,30.16,29.91,29.78,10,7,2,22,9,31,0.04,6,Rain,359
2012-12-29,46,40,35,29,26,21,70,54,40,30.46,30.40,30.23,10,10,10,14,8,23,0.00,2,,327
2012-12-30,53,42,32,42,32,24,79,65,47,30.51,30.41,30.29,10,10,10,13,5,18,0.00,0,,85
2012-12-31,68,62,55,66,58,52,96,92,82,30.15,30.05,29.94,10,4,2,10,7,17,0.04,7,Rain,102